Date,TemperatureHighF,TemperatureAvgF,TemperatureLowF,DewpointHighF,DewpointAvgF,DewpointLowF,HumidityHigh,HumidityAvg,HumidityLow,PressureMaxIn,PressureMinIn,WindSpeedMaxMPH,WindSpeedAvgMPH,GustSpeedMaxMPH,PrecipitationSumIn
2012-1-1,82,55,39,50,36,19,78,50,22,30.15,29.97,20,3,20,0.00
2012-1-2,62,45,33,19,9,-4,30,23,17,30.15,30.00,24,6,24,0.00
2012-1-3,50,32,25,10,-2,-6,26,23,19,30.36,30.15,17,5,17,0.00
2012-1-4,69,38,23,18,4,-5,42,25,15,30.39,30.15,10,2,10,0.00
2012-1-5,76,49,38,21,12,2,33,23,13,30.15,30.06,11,2,13,0.00
2012-1-6,85,54,37,25,18,13,49,27,11,30.12,30.03,10,2,13,0.00
2012-1-7,79,60,50,48,35,20,70,41,22,30.12,30.00,13,3,13,0.00
2012-1-8,83,59,47,52,44,33,89,62,19,30.21,30.09,11,1,11,0.00
2012-1-9,79,61,53,55,50,41,89,70,29,30.18,30.06,10,1,10,0.00
2012-1-10,72,63,56,56,49,40,88,62,35,30.06,29.91,8,1,8,0.00
2012-1-11,76,59,49,59,46,28,90,65,29,29.91,29.56,17,4,17,0.20
2012-1-12,75,54,39,48,33,10,69,45,18,29.85,29.59,26,5,26,0.00
2012-1-13,57,37,29,12,8,4,43,30,18,30.15,29.85,22,5,22,0.00
2012-1-14,34,32,31,8,8,7,37,35,32,30.18,30.15,0,0,0,0.00
2012-1-15,78,48,36,23,14,8,40,26,13,30.45,30.15,10,2,13,0.00
2012-1-19,40,40,39,17,17,16,41,39,37,30.09,30.06,0,0,0,0.00
2012-1-20,66,52,38,49,31,17,80,46,18,30.12,30.00,10,1,10,0.08
2012-1-21,63,59,55,57,52,42,95,80,52,30.03,29.91,20,3,20,1.22
2012-1-22,58,52,44,57,47,37,95,83,64,30.24,30.03,9,1,9,0.00
2012-1-23,56,50,43,52,46,39,91,88,84,30.21,30.00,8,0,8,0.08
2012-1-24,90,58,45,53,38,15,94,58,10,30.21,30.00,11,1,11,0.00
2012-1-25,89,55,38,47,34,25,87,53,13,30.27,30.12,7,0,7,0.00
2012-1-26,80,63,54,58,48,36,83,60,31,30.15,29.74,10,1,10,0.04
2012-1-27,77,60,45,60,39,22,85,49,15,30.03,29.68,17,4,17,0.04
2012-1-28,82,52,40,35,28,20,79,44,15,30.21,30.00,15,3,15,0.00
2012-1-29,72,47,34,23,14,4,52,29,14,30.39,30.21,12,2,12,0.00
2012-1-30,86,50,35,24,10,1,37,21,11,30.45,30.33,9,1,10,0.00
2012-1-31,83,51,34,26,19,12,58,31,11,30.42,30.27,9,1,9,0.00
2012-2-1,52,48,43,39,32,18,77,56,29,30.30,30.24,8,1,8,0.00
2012-2-2,89,64,53,56,42,25,83,52,13,30.24,30.06,13,3,14,0.00
2012-2-3,75,56,48,29,22,18,38,27,13,30.42,30.24,11,2,11,0.00
2012-2-4,87,63,53,47,36,29,54,38,18,30.30,30.03,13,2,13,0.00
2012-2-5,90,67,55,54,44,28,74,47,16,30.09,29.94,13,3,13,0.00
2012-2-6,55,49,41,43,33,29,75,54,44,30.21,30.09,10,2,10,0.00
2012-2-7,75,48,38,44,33,25,93,63,18,30.18,30.09,6,1,8,0.00
2012-2-8,80,51,38,39,27,15,85,48,13,30.15,30.06,13,2,13,0.00
2012-2-9,68,46,34,29,23,16,72,43,17,30.27,30.15,8,1,8,0.00
2012-2-10,64,48,36,35,30,24,78,53,27,30.18,29.91,8,1,8,0.00
2012-2-11,56,44,28,31,15,-5,52,33,18,30.21,29.80,26,7,28,0.00
2012-2-12,66,34,22,15,0,-8,30,23,17,30.33,30.21,15,4,15,0.00
2012-2-13,80,42,24,22,7,-2,42,25,13,30.27,30.09,12,1,12,0.00
2012-2-14,57,48,40,36,25,9,61,41,25,30.12,30.00,7,1,7,0.00
2012-2-15,84,56,42,42,33,23,81,47,13,30.24,30.09,11,1,11,0.00
2012-2-16,68,59,53,57,53,42,90,81,60,30.18,29.97,14,1,14,0.24
2012-2-17,75,58,49,53,42,29,90,61,21,30.12,30.00,8,1,8,0.00
2012-2-18,70,55,45,50,40,27,88,63,22,30.09,29.88,6,0,6,0.31
2012-2-19,59,53,40,56,50,32,93,90,72,29.94,29.65,11,2,13,0.83
2012-2-20,78,46,34,33,25,13,83,50,13,30.27,29.94,11,2,13,0.04
2012-2-21,79,51,34,36,30,21,80,48,15,30.27,30.03,14,2,14,0.00
2012-2-22,85,59,52,49,40,24,81,55,13,30.03,29.65,16,4,16,0.00
2012-2-23,90,71,62,59,49,31,86,51,15,29.74,29.62,17,6,17,0.00
2012-2-24,73,63,49,63,47,17,90,58,27,29.97,29.62,27,5,27,0.83
2012-2-25,64,48,40,17,13,8,33,24,16,30.27,29.97,20,5,20,0.00
2012-2-26,87,51,38,27,17,11,41,28,11,30.45,30.27,9,1,9,0.00
2012-2-27,69,53,48,49,42,28,92,68,33,30.39,30.30,9,1,9,0.04
2012-2-28,74,58,45,53,42,31,92,62,21,30.36,30.24,6,1,8,0.00
2012-2-29,77,66,58,63,49,37,89,57,32,30.24,29.38,14,3,15,0.24
2012-3-1,88,69,63,61,55,38,87,63,20,29.99,29.87,14,4,14,0.31
2012-3-2,82,70,65,63,54,44,88,59,30,29.99,29.78,19,4,19,0.00
2012-3-3,70,63,52,59,51,41,84,66,44,29.84,29.69,19,3,19,0.39
2012-3-4,63,50,44,46,21,6,82,38,16,30.14,29.72,27,4,29,0.20
2012-3-5,70,52,42,21,14,6,31,22,15,30.49,30.05,30,5,30,0.00
2012-3-6,80,50,35,26,14,9,41,26,13,30.64,30.49,8,1,8,0.00
2012-3-7,74,60,49,44,36,25,63,42,23,30.61,30.43,10,1,10,0.00
2012-3-8,90,64,50,55,43,33,86,52,17,30.43,30.16,10,2,10,0.00
2012-3-9,70,62,50,57,48,22,82,60,34,30.31,30.14,15,3,15,0.00
2012-3-10,82,54,39,24,19,13,50,28,12,30.46,30.31,13,2,13,0.00
2012-3-11,84,59,42,41,33,24,75,41,16,30.55,30.40,6,1,10,0.00
2012-3-12,76,63,55,50,44,36,73,52,25,30.43,30.28,11,1,11,0.00
2012-3-13,83,66,61,62,52,44,88,62,30,30.31,30.19,10,2,10,0.35
2012-3-14,96,71,58,61,47,27,93,53,11,30.28,30.19,10,2,10,0.00
2012-3-15,96,71,56,59,42,28,87,43,11,30.31,30.16,8,1,8,0.00
2012-3-16,95,73,61,55,46,35,76,43,14,30.28,30.14,10,2,10,0.00
2012-3-17,87,72,61,59,47,35,84,45,18,30.28,30.16,11,2,13,0.04
2012-3-18,96,72,62,62,49,36,89,50,14,30.31,30.19,8,1,8,0.20
2012-3-19,98,73,59,58,46,30,82,45,11,30.25,30.11,7,0,7,0.00
2012-3-20,96,73,59,56,46,34,78,43,14,30.22,30.11,8,1,9,0.00
2012-3-21,90,72,59,61,51,38,87,53,18,30.28,30.16,9,1,9,0.00
2012-3-22,92,73,64,60,54,39,80,54,18,30.25,30.14,9,1,9,0.00
2012-3-23,86,69,64,65,60,48,90,76,29,30.19,30.02,17,1,17,1.34
2012-3-24,86,71,65,63,49,30,90,54,19,30.02,29.75,14,2,14,0.00
2012-3-25,75,62,52,41,34,27,65,36,21,29.90,29.78,15,4,15,0.00
2012-3-26,90,68,55,42,34,22,60,34,10,30.05,29.87,10,2,10,0.00
2012-3-27,86,66,56,40,29,22,47,27,13,30.31,30.05,10,1,10,0.00
2012-3-28,88,68,56,52,42,30,70,45,16,30.25,30.02,15,2,15,0.00
2012-3-29,90,73,61,43,38,32,51,30,15,30.05,29.93,12,3,12,0.00
2012-3-30,88,74,62,59,39,28,78,32,13,30.02,29.90,12,2,14,0.00
2012-3-31,79,70,65,63,56,45,90,66,31,29.96,29.81,11,2,11,0.59
2012-4-1,91,72,60,61,46,28,91,50,12,29.93,29.81,10,2,10,0.00
2012-4-2,95,77,66,53,44,30,62,35,11,29.93,29.78,12,3,13,0.00
2012-4-3,92,74,65,64,56,44,88,59,22,30.02,29.87,16,1,22,0.47
2012-4-4,88,70,61,65,57,37,92,68,19,30.02,29.72,13,1,14,0.24
2012-4-5,87,72,62,58,48,32,76,46,16,29.75,29.66,15,2,15,0.00
2012-4-6,74,61,51,52,38,22,70,48,16,30.11,29.72,14,2,14,0.00
2012-4-7,81,60,45,48,34,22,85,46,15,30.31,30.11,8,1,9,0.00
2012-4-8,85,67,54,37,31,25,41,28,13,30.22,30.02,11,3,11,0.00
2012-4-9,85,68,55,42,28,18,61,26,11,30.16,29.99,13,1,14,0.00
2012-4-10,84,68,54,33,26,18,36,22,11,30.11,29.93,10,2,14,0.00
2012-4-11,74,61,51,34,20,11,32,21,13,30.11,29.96,15,3,15,0.00
2012-4-12,78,55,39,27,18,10,44,25,13,30.28,30.11,10,1,13,0.00
2012-4-13,84,59,42,38,28,18,72,37,11,30.28,30.16,8,1,8,0.00
2012-4-14,86,64,46,44,31,22,77,36,13,30.34,30.19,8,1,8,0.00
2012-4-15,85,71,59,57,48,39,88,49,22,30.25,30.16,10,1,11,0.00
2012-4-16,88,72,58,55,46,37,77,45,19,30.25,30.16,10,1,10,0.00
2012-4-17,97,76,62,59,48,36,80,44,13,30.22,30.05,8,1,8,0.00
2012-4-18,72,65,58,59,53,45,88,69,39,30.11,30.05,9,2,9,0.24
2012-4-19,71,63,57,55,52,46,91,70,42,30.11,29.99,8,1,8,0.04
2012-4-20,78,67,59,56,51,45,79,60,34,30.02,29.87,4,0,4,0.00
2012-4-21,89,72,62,62,52,37,87,56,18,29.90,29.69,9,0,9,0.67
2012-4-22,76,65,55,60,45,17,87,56,15,29.72,29.52,19,3,19,0.08
2012-4-23,66,53,42,24,19,11,45,27,15,29.87,29.66,19,4,19,0.00
2012-4-24,72,56,43,25,20,16,38,25,14,29.93,29.84,16,4,16,0.00
2012-4-25,87,68,50,38,33,28,49,29,16,29.99,29.87,11,3,15,0.00
2012-4-26,89,76,65,47,37,28,50,26,13,30.02,29.90,15,4,17,0.00
2012-4-27,93,78,68,52,45,35,48,32,17,30.08,29.96,12,4,15,0.00
2012-4-28,98,77,64,63,51,30,81,48,11,30.14,30.02,8,1,10,0.00
2012-4-29,99,78,66,61,50,32,82,47,10,30.19,30.08,8,1,8,0.00
2012-4-30,102,80,65,60,49,38,78,41,12,30.22,30.11,8,2,8,0.00
2012-5-1,100,79,66,62,51,36,81,44,13,30.22,30.08,9,2,9,0.00
2012-5-2,100,80,66,64,50,30,84,44,10,30.19,30.08,9,2,9,0.00
2012-5-3,98,80,69,63,50,38,80,41,13,30.19,30.08,8,1,8,0.00
2012-5-4,94,80,70,58,52,43,64,42,19,30.14,29.99,10,2,11,0.00
2012-5-5,99,83,68,63,50,33,81,38,10,30.02,29.84,13,2,13,0.00
2012-5-6,98,80,68,55,49,41,61,36,16,30.02,29.90,10,2,10,0.00
2012-5-7,96,78,70,60,53,40,67,45,16,30.05,29.93,11,1,11,0.00
2012-5-8,90,76,69,66,60,45,84,61,24,29.99,29.87,8,1,8,0.28
2012-5-9,84,71,63,68,62,50,90,75,35,29.90,29.72,17,1,17,0.98
2012-5-10,87,68,55,54,40,24,90,46,13,29.96,29.84,11,2,12,0.00
2012-5-11,91,71,55,48,39,28,73,37,12,30.22,29.96,9,1,9,0.00
2012-5-12,90,74,62,58,44,30,74,39,15,30.31,30.22,8,1,8,0.00
2012-5-13,76,68,63,65,57,46,89,67,45,30.25,30.08,6,0,6,0.16
2012-5-14,90,75,68,66,59,42,91,65,20,30.08,29.90,10,1,11,0.00
2012-5-16,73,72,72,57,56,54,58,56,53,29.96,29.96,0,0,0,0.00
2012-5-17,88,72,64,63,56,42,85,61,24,30.02,29.93,13,1,13,0.12
2012-5-18,82,70,63,60,52,37,87,58,21,30.11,29.99,11,1,11,0.04
2012-5-19,93,72,59,56,42,28,76,41,12,30.16,30.05,15,2,15,0.00
2012-5-20,91,72,58,49,39,28,69,36,12,30.14,30.02,13,2,13,0.00
2012-5-21,96,76,61,54,45,31,72,39,11,30.08,29.90,8,1,8,0.00
2012-5-22,93,77,65,57,49,35,73,41,14,29.93,29.81,12,1,12,0.00
2012-5-23,96,77,62,58,46,31,75,39,11,29.93,29.84,10,1,10,0.00
2012-5-24,99,81,66,62,48,33,75,37,10,30.02,29.93,8,0,8,0.00
2012-5-25,102,83,70,64,51,33,78,40,10,30.14,30.02,9,1,10,0.00
2012-5-26,99,83,69,62,51,41,74,38,15,30.14,30.05,15,2,15,0.00
2012-5-27,98,82,69,60,52,42,69,39,16,30.11,30.02,12,1,12,0.00
2012-5-28,95,80,72,69,61,50,79,55,24,30.05,29.93,9,1,12,0.08
2012-5-29,84,74,70,69,67,64,90,77,54,29.99,29.81,10,1,10,0.00
2012-5-30,98,79,69,69,54,30,91,53,11,29.87,29.78,10,2,11,0.00
2012-5-31,102,82,67,66,50,32,84,44,10,29.93,29.81,11,2,11,0.00
2012-6-1,90,77,67,66,56,42,88,54,20,29.93,29.78,15,2,17,0.00
2012-6-2,88,73,62,57,38,20,65,33,12,29.96,29.84,13,2,13,0.00
2012-6-3,93,76,59,48,39,29,52,29,14,30.05,29.90,13,2,13,0.00
2012-6-4,91,77,70,66,56,46,86,51,23,29.90,29.75,13,2,13,0.00
2012-6-5,80,71,66,65,55,46,86,57,32,29.90,29.72,12,1,12,0.00
2012-6-6,86,70,64,64,56,45,90,64,26,30.02,29.84,8,0,8,0.00
2012-6-7,94,74,59,61,48,36,89,49,14,30.08,29.99,10,0,10,0.00
2012-6-8,98,77,62,59,46,31,81,42,11,30.11,30.02,10,1,10,0.00
2012-6-9,97,79,64,58,44,31,74,36,11,30.14,30.05,8,1,11,0.00
2012-6-10,93,76,71,72,61,45,87,61,32,30.16,30.05,8,1,8,0.00
2012-6-11,86,74,68,72,66,56,89,75,37,30.14,30.05,9,1,9,0.00
2012-6-12,98,80,69,68,61,46,88,59,20,30.08,29.90,14,1,15,0.00
2012-6-13,99,80,68,70,59,42,91,58,16,29.99,29.90,9,1,9,0.00
2012-6-14,94,79,69,66,52,39,84,46,16,30.14,29.99,10,1,10,0.00
2012-6-15,94,78,68,57,45,30,65,36,11,30.22,30.11,12,1,13,0.00
2012-6-16,95,75,62,55,43,28,73,37,11,30.28,30.14,12,1,12,0.00
2012-6-17,99,76,60,57,45,32,77,39,10,30.19,30.02,8,1,8,0.00
2012-6-18,100,79,66,57,47,35,70,38,13,30.14,30.08,7,1,7,0.00
2012-6-19,99,80,65,62,48,32,79,40,11,30.22,30.14,6,0,6,0.00
2012-6-20,100,82,68,62,52,42,75,41,15,30.19,30.11,9,1,10,0.00
2012-6-21,97,81,69,62,53,43,73,41,17,30.14,29.99,6,0,6,0.00
2012-6-22,104,83,68,63,51,38,78,39,12,30.02,29.87,8,1,8,0.00
2012-6-23,105,85,70,67,53,35,78,40,12,30.02,29.93,7,1,9,0.00
2012-6-24,102,85,75,69,59,38,79,47,13,30.02,29.90,9,1,9,0.00
2012-6-25,99,83,72,65,59,48,76,48,18,29.96,29.75,8,1,8,0.00
2012-6-29,107,95,89,49,42,33,25,16,9,29.87,29.84,6,2,6,0.00
2012-6-30,118,95,75,58,46,33,53,24,6,29.93,29.84,8,1,8,0.00
2012-7-1,113,87,70,76,58,33,89,43,7,30.14,29.90,20,1,20,0.00
2012-7-2,102,85,72,66,55,43,80,42,15,30.16,29.99,10,1,10,0.00
2012-7-3,107,87,76,66,56,40,68,39,11,30.05,29.96,12,1,13,0.00
2012-7-4,105,86,72,65,54,39,78,40,12,30.08,29.96,11,2,11,0.00
2012-7-5,108,89,72,70,52,33,88,35,8,30.05,29.90,11,2,11,0.00
2012-7-6,104,83,72,67,60,49,83,52,18,30.05,29.96,10,2,10,0.00
2012-7-7,105,87,73,65,57,40,75,43,12,30.08,29.99,11,2,11,0.00
2012-7-8,104,89,78,65,54,39,64,34,12,30.08,29.93,12,3,12,0.00
2012-7-9,104,86,75,72,58,44,88,43,14,29.99,29.90,13,2,13,0.00
2012-7-10,104,84,73,70,60,39,86,53,12,30.11,29.90,15,2,15,0.00
2012-7-11,99,80,71,71,61,46,90,59,18,30.14,30.02,10,1,10,0.00
2012-7-12,96,78,73,72,65,53,86,66,26,30.16,30.08,11,0,12,0.00
2012-7-13,97,82,74,72,65,53,87,61,25,30.19,30.11,8,0,8,0.00
2012-7-14,100,84,74,73,62,44,88,53,16,30.22,30.14,8,1,10,0.00
2012-7-15,102,84,72,71,58,39,85,47,13,30.25,30.11,8,1,10,0.00
2012-7-16,101,84,73,70,60,45,82,49,16,30.16,29.99,13,1,13,0.00
2012-7-17,97,82,71,68,60,46,78,51,19,30.08,29.93,6,1,6,0.00
2012-7-18,101,82,74,65,59,47,72,49,18,30.11,29.96,11,1,11,0.00
2012-7-19,100,80,72,71,64,46,83,62,18,30.14,30.05,11,2,11,0.00
2012-7-20,99,84,74,70,62,47,85,53,18,30.08,29.96,13,3,13,0.00
2012-7-21,92,82,76,68,63,55,69,53,30,30.14,30.02,10,2,10,0.00
2012-7-22,104,84,75,69,62,46,78,52,15,30.22,30.14,9,1,9,0.00
2012-7-23,104,84,75,77,66,48,85,59,18,30.25,30.11,19,1,23,0.00
2012-7-24,103,88,77,68,59,44,69,43,15,30.14,29.96,13,3,13,0.00
2012-7-25,107,90,78,67,58,45,65,39,14,30.05,29.96,10,1,10,0.00
2012-7-26,106,91,80,69,58,41,67,39,12,29.99,29.90,10,2,10,0.00
2012-7-27,98,85,79,70,61,54,62,45,27,30.02,29.93,15,2,19,0.00
2012-7-28,105,87,76,67,60,41,74,46,12,30.05,29.93,9,2,10,0.00
2012-7-29,100,86,78,69,62,48,75,48,21,30.05,29.93,9,2,9,0.00
2012-7-30,102,83,74,70,62,46,81,54,16,30.02,29.93,11,1,11,0.00
2012-7-31,93,79,72,71,66,56,87,67,33,30.02,29.93,6,0,6,0.00
2012-8-1,103,84,73,72,60,40,89,55,12,29.99,29.90,9,1,9,0.00
2012-8-2,103,85,75,69,58,44,73,44,15,29.99,29.90,15,2,15,0.00
2012-8-3,102,81,70,72,61,45,87,57,15,30.11,29.96,10,1,12,0.00
2012-8-4,104,82,71,73,61,45,89,56,15,30.22,30.08,9,1,9,0.00
2012-8-5,95,81,74,71,64,54,83,60,27,30.25,30.14,10,0,10,0.00
2012-8-6,98,81,74,72,65,49,87,61,21,30.19,30.05,10,1,10,0.00
2012-8-7,98,80,70,72,66,54,91,66,25,30.08,29.99,9,0,9,0.00
2012-8-8,100,81,71,72,62,46,91,60,18,30.08,29.99,8,0,8,0.00
2012-8-9,99,81,73,76,65,47,90,65,18,30.05,29.87,15,1,15,0.00
2012-8-10,89,79,73,71,64,52,88,64,31,29.93,29.87,10,2,11,0.00
2012-8-11,87,76,70,75,67,59,91,75,42,29.99,29.90,13,1,13,0.00
2012-8-12,95,80,71,70,54,31,89,52,11,30.05,29.96,9,1,9,0.00
2012-8-13,98,79,64,62,47,31,80,41,11,30.08,29.99,10,1,10,0.00
2012-8-14,96,80,71,66,53,44,81,42,18,30.05,29.93,25,2,25,0.00
2012-8-15,94,81,72,70,62,46,88,58,21,30.02,29.96,9,1,12,0.00
2012-8-16,99,82,73,66,56,38,74,47,13,30.08,29.99,9,1,9,0.00
2012-8-17,98,82,72,68,60,45,84,52,18,30.05,29.87,9,2,9,0.00
2012-8-26,100,86,73,60,49,42,63,30,15,30.19,30.08,9,1,9,0.00
2012-8-27,98,78,67,71,62,52,84,62,26,30.14,30.02,10,1,10,0.00
2012-8-28,87,78,75,73,71,64,88,81,47,30.05,29.99,4,0,4,0.00
2012-8-29,95,80,74,73,66,53,90,67,27,30.05,29.96,8,1,8,0.00
2012-8-30,88,78,73,71,66,59,89,69,39,30.19,30.02,4,0,4,0.00
2012-8-31,101,83,72,73,61,44,89,56,16,30.25,30.14,6,0,6,0.00
2012-9-1,101,84,73,71,60,43,87,51,16,30.19,29.47,8,1,9,7.24
2012-9-2,100,82,74,70,62,46,83,56,17,30.10,29.98,10,1,12,0.04
2012-9-3,95,81,74,71,66,52,88,65,27,30.04,29.95,10,1,10,0.00
2012-9-4,95,80,74,71,65,54,86,63,28,30.01,29.92,11,1,11,0.00
2012-9-5,95,80,72,70,62,47,88,59,21,30.01,29.92,9,1,9,0.00
2012-9-6,96,81,72,69,62,52,86,55,24,30.04,29.92,11,2,11,0.00
2012-9-7,98,82,74,71,62,45,87,55,19,29.98,29.89,8,1,9,0.00
2012-9-8,95,79,73,71,65,52,92,67,24,29.89,29.74,15,2,15,0.94
2012-9-9,89,74,66,70,53,35,91,54,18,30.01,29.83,13,2,13,0.00
2012-9-10,91,72,61,58,47,30,86,51,12,30.16,30.01,9,1,9,0.00
2012-9-11,92,72,60,60,49,36,85,51,14,30.27,30.16,6,0,6,0.00
2012-9-12,90,71,60,59,48,34,84,51,15,30.33,30.24,9,0,9,0.00
2012-9-13,87,72,59,56,52,46,82,53,25,30.33,30.22,6,0,6,0.00
2012-9-14,92,76,67,58,51,39,71,45,17,30.24,30.16,11,1,11,0.00
2012-9-15,94,75,64,64,54,40,87,54,17,30.22,30.10,8,0,8,0.00
2012-9-16,96,78,66,65,55,40,83,52,16,30.16,30.04,6,0,6,0.00
2012-9-17,96,78,70,72,63,50,87,65,24,30.10,29.92,10,1,13,0.71
2012-9-18,84,75,70,71,66,56,89,76,41,29.92,29.74,11,2,12,0.35
2012-9-19,89,73,65,66,54,39,89,57,19,30.04,29.86,12,2,12,0.00
2012-9-20,95,72,61,60,51,39,80,52,16,30.04,30.04,9,0,9,0.00
2012-9-21,98,74,63,64,54,38,89,57,13,30.04,30.04,6,0,6,0.00
2012-9-22,96,77,68,66,54,36,88,50,14,30.04,30.04,14,2,14,0.00
2012-9-23,96,74,62,52,39,23,54,32,9,30.04,30.04,12,2,12,0.00
2012-9-24,93,68,54,51,39,28,66,37,12,30.04,30.04,8,1,10,0.00
2012-9-25,96,70,56,56,45,31,84,48,11,30.04,30.04,8,1,8,0.00
2012-9-26,101,71,57,58,47,28,86,50,10,30.04,30.04,8,0,8,0.00
2012-9-27,100,75,65,67,55,31,86,57,10,30.04,30.04,8,1,8,0.00
2012-9-28,96,76,65,66,56,42,88,56,17,30.04,30.04,7,1,8,0.00
2012-9-29,89,77,69,62,56,44,73,50,21,30.04,30.04,8,1,9,0.00
2012-9-30,73,71,67,66,64,58,90,79,62,30.04,30.04,6,0,8,0.24
2012-10-1,95,78,70,72,63,48,90,66,21,30.04,30.04,8,1,8,0.16
2012-10-2,93,79,73,70,58,42,84,54,18,30.04,30.04,11,1,11,0.00
2012-10-3,82,73,68,65,57,47,85,58,31,30.04,30.04,5,0,6,0.04
2012-10-4,100,74,67,65,56,31,88,62,11,30.04,30.04,7,1,7,0.24
2012-10-5,100,71,62,64,53,31,90,63,11,30.04,30.04,6,0,7,0.00
2012-10-6,105,74,62,63,49,30,90,51,10,30.04,30.04,10,1,10,0.00
2012-10-7,96,72,64,59,51,37,80,51,14,30.04,30.04,10,2,10,0.00
2012-10-8,65,61,56,51,41,36,66,49,39,30.04,30.04,11,2,11,0.00
2012-10-9,79,63,52,41,36,30,67,39,21,30.04,30.04,10,2,10,0.00
2012-10-10,92,62,49,50,43,33,81,55,14,30.04,30.04,10,2,11,0.00
2012-10-11,97,63,51,50,41,27,87,52,11,30.04,30.04,6,0,6,0.00
2012-10-12,102,68,54,51,44,31,82,49,10,30.28,30.04,9,1,9,0.00
2012-10-13,96,67,57,48,43,33,68,44,14,30.40,30.25,8,1,9,0.00
2012-10-14,93,69,57,63,52,45,81,57,22,30.31,30.04,7,0,8,0.00
2012-10-15,93,71,61,63,51,30,87,56,17,30.04,29.80,17,2,17,0.00
2012-10-16,97,62,49,47,36,23,79,43,9,30.01,29.89,8,0,8,0.00
2012-10-17,99,64,53,51,39,22,81,47,11,30.01,29.89,8,1,8,0.00
2012-10-18,94,68,55,60,50,39,86,58,17,29.92,29.77,11,1,11,0.00
2012-10-19,94,67,56,59,36,18,81,41,9,29.86,29.75,13,2,13,0.00
2012-10-20,92,63,52,38,28,20,47,27,12,29.95,29.83,10,2,12,0.00
2012-10-21,103,62,48,45,36,23,81,45,9,30.16,29.95,6,0,7,0.00
2012-10-22,101,64,49,51,40,28,85,51,10,30.25,30.13,8,0,8,0.00
2012-10-23,105,65,50,54,40,25,85,50,9,30.22,30.10,5,0,5,0.00
2012-10-24,104,67,52,56,45,30,83,53,9,30.22,30.07,6,0,6,0.00
2012-10-25,100,71,56,60,50,36,88,55,13,30.13,30.01,8,0,8,0.00
2012-10-26,88,70,61,61,48,29,92,53,13,30.04,29.89,11,1,11,0.00
2012-10-27,77,68,62,54,47,41,72,50,29,29.89,29.69,15,4,15,0.00
2012-10-28,82,65,57,45,38,29,53,38,18,29.75,29.63,13,4,13,0.00
2012-10-29,71,53,43,29,22,15,52,32,15,29.75,29.63,20,6,20,0.00
2012-10-30,71,52,46,20,14,9,29,22,15,29.75,29.57,19,5,19,0.00
2012-10-31,80,54,43,23,14,7,34,21,12,29.86,29.75,17,4,17,0.00
2012-11-1,84,54,43,23,13,7,28,19,12,29.95,29.83,15,3,15,0.00
2012-11-2,90,61,46,33,19,6,37,21,10,29.98,29.86,17,2,17,0.00
2012-11-3,101,63,45,45,33,22,77,41,8,30.10,29.98,8,0,8,0.00
2012-11-4,84,68,59,48,40,32,64,39,16,30.01,29.89,14,2,14,0.00
2012-11-5,91,59,50,43,32,19,69,40,11,30.07,29.95,10,1,10,0.00
2012-11-6,61,51,40,39,28,20,66,42,24,30.01,29.92,14,1,14,0.00
2012-11-7,50,44,39,37,32,25,85,63,47,30.01,29.89,4,0,5,0.04
2012-11-8,88,51,37,44,28,13,94,53,10,30.16,30.01,9,1,9,0.00
2012-11-9,95,54,36,39,25,16,78,41,9,30.28,30.16,8,0,8,0.00
2012-11-10,100,56,37,40,26,16,77,39,8,30.37,30.25,6,0,6,0.00
2012-11-11,96,58,43,48,32,25,69,44,11,30.45,30.34,6,1,7,0.00
2012-11-12,79,65,57,59,52,45,84,65,33,30.34,30.19,9,1,10,0.00
2012-11-13,65,58,46,60,46,30,87,64,40,30.31,30.16,10,1,10,0.00
2012-11-14,60,52,46,38,28,21,74,41,25,30.40,30.25,10,2,11,0.35
2012-11-15,52,45,41,43,39,34,94,80,52,30.31,30.22,10,2,10,2.72
2012-11-16,78,49,40,39,32,21,87,57,15,30.31,30.25,10,1,10,0.00
2012-11-17,80,50,38,34,24,11,82,43,13,30.42,30.31,12,2,14,0.00
2012-11-18,71,56,49,34,28,16,43,34,23,30.37,30.28,16,4,16,0.00
2012-11-19,88,59,51,43,36,27,72,45,13,30.28,30.16,14,4,15,0.00
2012-11-20,82,55,46,43,39,30,83,60,17,30.19,30.04,10,1,11,0.00
2012-11-21,87,54,41,47,33,16,91,55,11,30.16,30.07,11,1,11,0.00
2012-11-22,87,52,38,36,27,16,81,46,11,30.25,30.16,9,1,9,0.00
2012-11-23,88,57,37,40,29,22,83,42,10,30.19,29.98,14,2,14,0.00
2012-11-24,77,51,40,29,16,5,42,26,13,30.10,29.98,17,4,17,0.00
2012-11-25,78,44,30,23,15,10,61,33,13,30.19,30.07,8,1,9,0.00
2012-11-26,88,53,34,26,15,9,48,25,10,30.22,30.13,8,1,8,0.00
2012-11-27,58,52,48,50,33,8,89,54,19,30.19,30.07,12,1,12,0.16
2012-11-28,74,52,41,50,38,24,91,64,19,30.37,30.16,8,1,8,0.00
2012-11-29,83,47,34,40,27,13,85,53,11,30.45,30.34,5,0,7,0.00
2012-11-30,77,52,37,44,33,23,75,51,21,30.40,30.28,6,0,6,0.00
2012-12-1,75,59,50,48,43,35,81,57,26,30.37,30.28,6,0,6,0.00
2012-12-2,81,60,51,53,47,40,84,63,25,30.37,30.25,6,0,6,0.00
2012-12-3,87,65,57,60,45,27,91,53,14,30.31,30.22,7,1,8,0.00
2012-12-4,90,62,51,55,47,37,85,62,18,30.34,30.19,10,1,10,0.00
2012-12-5,75,65,60,51,44,36,72,49,24,30.19,30.07,12,2,12,0.00
2012-12-6,63,59,52,52,43,30,74,57,35,30.19,30.10,9,1,9,0.00
2012-12-7,66,54,49,43,34,28,80,49,33,30.13,29.95,9,2,10,0.00
2012-12-8,75,57,46,52,45,40,88,68,29,30.04,29.98,7,0,7,0.00
2012-12-9,69,61,55,60,54,50,91,79,51,30.07,29.95,6,0,6,0.00
2012-12-10,82,64,57,60,52,39,93,70,23,29.95,29.72,15,2,15,0.00
2012-12-11,62,57,51,59,37,25,91,50,28,30.07,29.72,10,2,10,0.00
2012-12-12,51,47,43,42,34,24,93,62,36,30.19,30.04,10,2,10,0.67
2012-12-13,62,45,39,41,32,23,94,64,26,30.31,30.16,10,1,12,0.12
2012-12-14,71,45,34,37,30,20,88,61,17,30.34,30.16,6,0,6,0.00
2012-12-15,66,51,40,43,31,18,81,53,18,30.19,30.04,5,0,5,0.00
2012-12-16,67,60,53,59,53,42,92,79,56,30.07,29.86,13,1,13,0.47
2012-12-17,60,58,55,58,56,54,95,92,83,30.90,29.83,8,1,9,0.51
2012-12-18,69,56,46,55,33,13,93,50,15,31.61,30.69,18,2,18,0.00
2012-12-19,85,54,39,32,25,18,58,34,13,31.61,31.22,10,1,10,0.00
2012-12-20,69,54,42,62,38,16,90,57,29,31.61,31.58,23,3,28,0.51
2012-12-21,55,43,37,17,10,1,32,25,18,31.61,20.86,27,7,27,0.00
2012-12-22,71,44,33,19,6,0,25,21,15,22.36,18.32,17,4,17,0.00
2012-12-23,67,49,36,18,10,1,26,21,15,18.32,18.32,14,3,14,0.00
2012-12-24,53,50,48,49,30,16,90,52,26,18.32,18.32,8,1,8,0.59
2012-12-25,55,53,52,52,49,46,92,87,74,18.32,18.32,6,1,7,0.59
2012-12-26,62,52,39,60,36,16,95,58,26,18.32,18.32,24,4,24,1.06
2012-12-27,60,43,35,20,18,14,52,38,19,18.32,18.32,14,4,14,0.00
2012-12-28,65,51,43,30,24,20,49,36,21,18.32,18.32,7,1,7,0.00
2012-12-29,53,45,37,44,31,17,93,61,35,18.32,18.32,19,4,19,0.63
2012-12-30,70,40,30,20,14,6,55,36,15,18.32,18.32,10,2,10,0.00
2012-12-31,69,46,29,34,24,14,76,46,19,18.32,18.32,13,2,13,0.00
2013-1-1,67,55,47,50,38,29,85,55,33,18.32,18.32,6,1,7,0.00